Zurück zum Katalog

KUIPER-00489

AktivKommunikationLEO
NORAD 68880·PAYLOAD·🇺🇸 United States

Gestartet Apr 28, 2026 von Cape Canaveral Space Force Station

Loading…

Nächste Überflüge (nächste 24 Stunden)

TLE

AktuellSource: CelesTrak SupGP

Epoche: Sep 14, 2026, 20:57 UTC

1 68880C 26095S   26257.87304398 -.00001227  00000+0 -16054-3 0  2575
2 68880  51.8959 191.5620 0001281  75.0900 125.0051 14.79937816    16

Verfolge KUIPER-00489 in Echtzeit mit AllMySat

Download on the App Store